KE5KUL-13 Weather Reports


time (UTC)temp
F
wind
direction
speed
knots
gust
knots
rain 1hr
in
rain 24hr
in
rain mn
in
humidity
%
barometer
mb
20260510154018 54 23 5.2 13.9 0.00 0.00 0.00 88 1021.0
20260510153018 54 23 8.7 17.4 0.00 0.00 0.00 87 1020.9
20260510152018 55 23 6.1 15.6 0.00 0.00 0.00 87 1020.7
20260510151017 56 45 4.3 11.3 0.00 0.00 0.00 87 1020.6
20260510150018 56 23 5.2 12.2 0.00 0.00 0.00 87 1020.3
20260510145018 56 23 4.3 10.4 0.00 0.00 0.00 87 1019.9
20260510144018 56 23 5.2 10.4 0.00 0.00 0.00 86 1019.6
20260510143017 57 23 3.5 7.8 0.00 0.00 0.00 85 1019.7
20260510142018 57 45 3.5 10.4 0.00 0.00 0.00 85 1019.9
20260510141018 57 45 5.2 13.9 0.00 0.00 0.00 83 1019.8
20260510140018 58 23 5.2 14.8 0.00 0.00 0.00 81 1019.9
20260510135017 58 23 6.1 13.9 0.00 0.00 0.00 81 1019.8
20260510134017 58 45 4.3 10.4 0.00 0.00 0.00 80 1019.9
20260510133018 58 23 3.5 9.6 0.00 0.00 0.00 81 1019.9
20260510132018 58 23 6.1 16.5 0.00 0.00 0.00 80 1019.5
20260510131017 58 23 4.3 11.3 0.00 0.00 0.00 80 1019.5
20260510130017 58 23 6.1 14.8 0.00 0.00 0.00 80 1019.4
20260510125017 58 45 3.5 9.6 0.00 0.00 0.00 79 1019.0
20260510124017 59 23 6.1 13.0 0.00 0.00 0.00 78 1019.0
20260510123017 60 23 5.2 11.3 0.00 0.00 0.00 79 1018.8
20260510122018 60 23 3.5 10.4 0.00 0.00 0.00 81 1018.9
20260510121018 60 45 2.6 10.4 0.00 0.00 0.00 80 1018.8
20260510120017 60 23 2.6 7.0 0.00 0.00 0.00 80 1018.6
20260510115017 60 45 2.6 7.8 0.00 0.00 0.00 80 1018.3
20260510114017 60 45 1.7 5.2 0.00 0.00 0.00 79 1018.5
20260510113017 61 23 1.7 8.7 0.00 0.00 0.00 78 1018.6
20260510112017 61 45 1.7 4.3 0.00 0.00 0.00 78 1018.4
20260510111017 61 45 0.9 5.2 0.00 0.00 0.00 77 1017.9
20260510110017 61 113 1.7 5.2 0.00 0.00 0.00 77 1017.9
20260510105017 61 113 2.6 8.7 0.00 0.00 0.00 78 1018.0
20260510104017 61 113 1.7 6.1 0.00 0.00 0.00 78 1017.9
20260510103017 61 23 1.7 4.3 0.00 0.00 0.00 78 1017.9
20260510102017 61 135 0.9 4.3 0.00 0.00 0.00 78 1017.9
20260510101017 61 113 1.7 6.1 0.00 0.00 0.00 78 1017.8
20260510100018 61 23 2.6 7.8 0.00 0.00 0.00 78 1017.7
20260510095017 62 113 1.7 7.0 0.00 0.00 0.00 78 1017.3
20260510094017 62 135 0.9 3.5 0.00 0.00 0.00 78 1017.4
20260510093019 62 113 1.7 4.3 0.00 0.00 0.00 77 1017.3
20260510092017 62 135 2.6 7.8 0.00 0.00 0.00 77 1016.8
20260510091017 62 113 1.7 6.1 0.00 0.00 0.00 76 1016.6
20260510090017 62 113 4.3 10.4 0.00 0.00 0.00 76 1016.5
20260510085017 62 113 3.5 8.7 0.00 0.00 0.00 75 1016.5
20260510084017 62 135 3.5 10.4 0.00 0.00 0.00 74 1016.2
20260510083019 63 135 3.5 9.6 0.00 0.00 0.00 74 1016.4
20260510082019 63 135 3.5 7.0 0.00 0.00 0.00 73 1016.3
20260510081019 63 135 3.5 8.7 0.00 0.00 0.00 72 1016.2
20260510080017 64 135 3.5 11.3 0.00 0.00 0.00 71 1015.9
20260510075017 65 135 2.6 8.7 0.00 0.00 0.00 70 1015.2
20260510074019 66 113 3.5 10.4 0.00 0.00 0.00 70 1015.0
20260510073018 66 135 2.6 7.8 0.00 0.00 0.00 70 1014.6
20260510072017 67 68 2.6 6.1 0.00 0.00 0.00 69 1014.8
20260510071019 67 113 1.7 6.1 0.00 0.00 0.00 70 1014.6
20260510070019 67 45 1.7 5.2 0.00 0.00 0.00 69 1015.0
20260510065018 68 23 1.7 7.0 0.00 0.00 0.00 69 1015.4
20260510064017 68 23 3.5 9.6 0.00 0.00 0.00 68 1015.5
20260510063019 68 23 1.7 5.2 0.00 0.00 0.00 68 1015.0
20260510062019 69 135 1.7 7.0 0.00 0.00 0.00 67 1015.0
20260510061019 69 68 0.9 3.5 0.00 0.00 0.00 66 1015.1
20260510060019 70 113 1.7 7.0 0.00 0.00 0.00 65 1015.4
20260510055019 70 113 2.6 12.2 0.00 0.00 0.00 64 1015.3
20260510054017 71 113 1.7 5.2 0.00 0.00 0.00 63 1015.0
20260510053018 71 23 1.7 7.0 0.00 0.00 0.00 62 1014.9
20260510052018 71 113 0.9 3.5 0.00 0.00 0.00 61 1015.0
20260510051019 71 113 0.9 3.5 0.00 0.00 0.00 60 1014.5
20260510050019 72 135 0.9 3.5 0.00 0.00 0.00 59 1014.5
20260510045017 72 113 0.9 3.5 0.00 0.00 0.00 57 1014.1
20260510044020 73 113 0.9 3.5 0.00 0.00 0.00 55 1014.2
20260510043017 73 113 0.9 2.6 0.00 0.00 0.00 52 1014.1
20260510042017 73 135 0.9 2.6 0.00 0.00 0.00 50 1013.8
20260510041018 74 0.0 1.7 0.00 0.00 0.00 47 1013.6
20260510040017 74 113 0.9 3.5 0.00 0.00 0.00 44 1013.6
20260510035017 76 113 0.9 3.5 0.00 0.00 0.00 41 1013.8
20260510034017 77 113 2.6 6.1 0.00 0.00 0.00 29 1013.7
20260510033017 78 23 0.9 3.5 0.00 0.00 0.00 23 1013.2
20260510032017 78 68 0.9 4.3 0.00 0.00 0.00 21 1013.0
20260510031017 78 90 0.9 2.6 0.00 0.00 0.00 19 1012.7
20260510030017 76 248 1.7 7.8 0.00 0.00 0.00 20 1012.1
20260510025017 75 68 0.9 4.3 0.00 0.00 0.00 21 1011.7
20260510024017 75 0.0 1.7 0.00 0.00 0.00 20 1011.1
20260510023017 76 0.0 0.0 0.00 0.00 0.00 19 1010.7
20260510022017 77 0.0 0.0 0.00 0.00 0.00 18 1010.4
20260510021017 78 0.0 0.9 0.00 0.00 0.00 17 1009.9
20260510020018 79 0.0 0.0 0.00 0.00 0.00 17 1009.7
20260510015017 81 0.0 0.9 0.00 0.00 0.00 16 1009.4
20260510014019 82 0.0 0.9 0.00 0.00 0.00 16 1009.4
20260510013017 84 0.0 0.0 0.00 0.00 0.00 15 1009.2
20260510012017 85 0.0 0.0 0.00 0.00 0.00 14 1008.9
20260510011017 86 0.0 2.6 0.00 0.00 0.00 14 1008.7
20260510010019 88 0.0 2.6 0.00 0.00 0.00 13 1008.5
20260510005017 89 0.0 1.7 0.00 0.00 0.00 12 1008.4
20260510004017 90 45 0.9 3.5 0.00 0.00 0.00 12 1008.3
20260510003017 91 45 2.6 4.3 0.00 0.00 0.00 11 1008.7
20260510002017 92 0.0 0.0 0.00 0.00 0.00 10 1008.5
20260510001019 94 45 0.9 2.6 0.00 0.00 0.00 10 1008.8
20260510000019 94 45 0.9 2.6 0.00 0.00 0.00 10 1009.2
20260509235019 95 315 2.6 7.8 0.00 0.00 0.00 9 1009.3
20260509234017 96 68 0.9 4.3 0.00 0.00 0.00 9 1009.6
20260509233019 96 315 3.5 8.7 0.00 0.00 0.00 10 1009.7
20260509232019 96 23 3.5 7.8 0.00 0.00 0.00 9 1009.8
20260509231018 96 315 2.6 7.0 0.00 0.00 0.00 9 1009.9
20260509230019 97 248 2.6 6.1 0.00 0.00 0.00 9 1009.9
20260509225019 98 338 2.6 4.3 0.00 0.00 0.00 9 1010.2
20260509224019 98 23 3.5 7.0 0.00 0.00 0.00 9 1010.6
20260509223018 98 225 3.5 8.7 0.00 0.00 0.00 9 1010.8
20260509222018 98 338 3.5 9.6 0.00 0.00 0.00 9 1010.9
20260509221019 98 338 3.5 7.8 0.00 0.00 0.00 10 1011.1
20260509220019 98 315 3.5 7.8 0.00 0.00 0.00 10 1011.1
20260509215018 97 0 3.5 7.8 0.00 0.00 0.00 10 1011.1
20260509214017 97 315 4.3 10.4 0.00 0.00 0.00 11 1011.1
20260509213018 97 270 2.6 7.0 0.00 0.00 0.00 12 1011.5
20260509212019 98 270 3.5 8.7 0.00 0.00 0.00 12 1011.8
20260509211018 98 293 5.2 10.4 0.00 0.00 0.00 11 1012.0
20260509210018 97 315 4.3 10.4 0.00 0.00 0.00 12 1011.9
20260509205019 98 315 3.5 8.7 0.00 0.00 0.00 13 1012.2
20260509204019 97 315 4.3 8.7 0.00 0.00 0.00 15 1012.2
20260509203018 96 315 4.3 9.6 0.00 0.00 0.00 15 1012.5
20260509202019 96 248 4.3 10.4 0.00 0.00 0.00 16 1012.4
20260509201019 95 225 3.5 7.8 0.00 0.00 0.00 17 1012.4
20260509200018 95 293 5.2 12.2 0.00 0.00 0.00 17 1012.6
20260509195018 94 270 4.3 10.4 0.00 0.00 0.00 18 1012.6
20260509194018 93 180 2.6 6.1 0.00 0.00 0.00 19 1012.7
20260509193017 92 248 5.2 11.3 0.00 0.00 0.00 19 1013.0
20260509192018 91 270 4.3 9.6 0.00 0.00 0.00 20 1013.1
20260509191018 91 225 5.2 12.2 0.00 0.00 0.00 19 1013.2
20260509190018 92 225 3.5 7.8 0.00 0.00 0.00 20 1013.5
20260509185018 92 248 5.2 10.4 0.00 0.00 0.00 19 1013.7
20260509184018 90 225 1.7 7.0 0.00 0.00 0.00 20 1013.5
20260509183018 91 248 4.3 13.0 0.00 0.00 0.00 20 1013.7
20260509182018 89 270 5.2 12.2 0.00 0.00 0.00 21 1013.6
20260509181018 89 225 4.3 9.6 0.00 0.00 0.00 22 1014.1
20260509180018 88 203 2.6 7.8 0.00 0.00 0.00 24 1014.0
20260509175018 88 248 3.5 9.6 0.00 0.00 0.00 24 1014.4
20260509174018 87 248 2.6 7.0 0.00 0.00 0.00 26 1014.1
20260509173018 85 180 3.5 7.8 0.00 0.00 0.00 28 1014.1
20260509172028 85 158 5.2 12.2 0.00 0.00 0.00 29 1014.3
20260509171018 84 225 3.5 9.6 0.00 0.00 0.00 31 1014.4
20260509170018 83 158 5.2 11.3 0.00 0.00 0.00 31 1014.6
20260509165018 82 158 4.3 8.7 0.00 0.00 0.00 31 1014.7
20260509164018 82 158 6.1 12.2 0.00 0.00 0.00 32 1014.8
20260509163018 81 158 3.5 7.8 0.00 0.00 0.00 34 1015.1
20260509162018 80 158 5.2 13.0 0.00 0.00 0.00 34 1015.0
20260509161018 79 158 5.2 12.2 0.00 0.00 0.00 34 1015.2
20260509160018 79 158 6.1 12.2 0.00 0.00 0.00 34 1015.3
20260509155018 79 180 4.3 8.7 0.00 0.00 0.00 36 1015.6